Regional Weather Roundup
Issued by NWS Jackson, KY

Home | Current Version | Previous Version | Graphics & Text | Print | Product List | Glossary On
Versions: 1 2 3 4 5 6 7 8 9 10 11 12 13 14 15 16 17 18 19 20 21 22 23 24 25 26 27
000
ASUS43 KJKL 050510
RWRJKL

EAST KENTUCKY HOURLY WEATHER ROUNDUP
NATIONAL WEATHER SERVICE JACKSON KY
100 AM EDT THU MAY 05 2016

NOTE: "FAIR" INDICATES FEW OR NO CLOUDS BELOW 12,000 FEET WITH
NO SIGNIFICANT WEATHER AND/OR OBSTRUCTIONS TO VISIBILITY.

* THESE REPORTS ARE NOT UNDER NWS QUALITY CONTROL AND MAY NOT
  REPORT WEATHER SUCH AS PRECIPITATION AND FOG.

KYZ079-080-083-085-087-088-110-112-115-119-120-050600
...EASTERN KENTUCKY...

CITY           SKY/WX    TMP DP  RH WIND       PRES   REMARKS
JACKSON        CLEAR     45  41  86 NW7       29.76R
LONDON         PTCLDY    45  43  93 NW3       29.78R
SOMERSET*      CLOUDY    46  46 100 CALM      29.80S
MONTICELLO*    CLOUDY    49  47  93 W14       29.82S
WILLIAMSBURG*  CLOUDY    45  45 100 CALM      29.79S VSB 1/2
MIDDLESBORO*   CLOUDY    47  47 100 CALM      29.78S
HARLAN APT*    CLOUDY    45  43  93 CALM      29.76F
HAZARD APT*    CLEAR     46  45  93 W6        29.76R
BLACK MTN*       N/A     36  36 100 N5          N/A  WCI  32
PIKE CO APT*     N/A     44  44  97 NW3       29.74S
BIG SANDY APT* CLEAR     45  44  97 CALM      29.74S
MOREHEAD APT*  PTCLDY    43  39  87 CALM      29.78S
$$

KYZ035-036-041-042-044-050-067-078-099-050600
...CENTRAL KENTUCKY...

CITY           SKY/WX    TMP DP  RH WIND       PRES   REMARKS
MT STERLING*   CLEAR     41  39  93 CALM      29.79S
FLEMING/MASON* CLEAR     42  37  83 W6        29.77S
DANVILLE*      CLOUDY    46  41  81 NW3       29.81S
RICHMOND*      MOCLDY    45  37  76 NW5       29.78S
LEXINGTON      PTCLDY    45  35  68 NW5       29.78F
FRANKFORT      PTCLDY    46  37  71 CALM      29.78F
LOUISVILLE     MOCLDY    49  40  71 W7        29.81S
LEBANON*         N/A     46  41  81 CALM      29.81S
BOWLING GREEN  PTCLDY    51  42  71 NW6       29.85S
$$

KYZ091>093-OHZ055-061-077-WVZ005-015-034-035-042-050600
...SOUTHERN OHIO/WEST VIRGINIA...

CITY           SKY/WX    TMP DP  RH WIND       PRES   REMARKS
COVINGTON      LGT RAIN  45  36  70 W6        29.75F
COLUMBUS       MOCLDY    44  36  73 NW6       29.72S
DAYTON         CLOUDY    42  34  73 NW5       29.74S
WILMINGTON     CLEAR     42  36  79 W7        29.72S
HUNTINGTON     CLOUDY    48  44  86 NW3       29.73S
CHARLESTON     LGT RAIN  49  46  90 NW7       29.70R FOG
PINEVILLE*     CLOUDY    49  46  90 MISG      29.74F
BECKLEY          N/A     45  42  89 W3        29.69S
$$

VAZ002-007-008-TNZ017-027-036-066-071-050600
...SOUTHWEST VIRGINIA/EAST TENNESSEE...

CITY           SKY/WX    TMP DP  RH WIND       PRES   REMARKS
WISE*          CLOUDY    45  45 100 NW9       29.74S
BRISTOL        CLOUDY    47  44  90 W8        29.74S
MORRISTOWN*    MOCLDY    48  45  87 W7        29.76S
SEVIERVILLE*   MOCLDY    48  46  93 CALM      29.76S
KNOXVILLE      PTCLDY    49  47  93 SW3       29.77S
OAK RIDGE      LGT RAIN  49  47  93 W5        29.80R
CROSSVILLE     PTCLDY    47  43  86 NW6       29.81R
NASHVILLE      PTCLDY    52  41  66 NW7       29.86R
$$

...KEY TO REMARKS...
VSB - VISIBILITY IN MILES
WCI - WIND CHILL INDEX
HX  - HEAT INDEX

$$




USA.gov is the U.S. government's official web portal to all federal, state and local government web resources and services.